Location: Niverville
(49.6028°N, 97.0419°W)
Time: 06:16:51
(UTC-06:00)

Amateur Radio Satellites - All Passes

Search period start: 21 November 2017 05:46
Search period end: 22 November 2017 05:46
Location: Niverville, 49.6028°N, 97.0419°W

Satellite Date Start Highest point End Downlink Frequencies (MHz)
Time Altitude Azimuth
XW-2C 21 Nov 05:47:52 05:50:44 20° 92° (E) 05:53:34 145.795 - 145.815
LilacSat-2 21 Nov 05:49:34 05:52:37 22° 93° (E) 05:55:39 437.200
CUTE-I 21 Nov 05:51:41 05:55:49 22° 91° (E) 05:59:55 437.470
XW-2F 21 Nov 05:58:29 06:01:36 24° 94° (E) 06:04:42 145.980 - 146.000
ITAMSAT 1 21 Nov 06:00:25 06:04:19 22° 303° (WNW) 06:08:12 435.822/435.867
PCSat 21 Nov 06:14:20 06:17:03 14° 13° (NNE) 06:19:45 145.827
KKS-1 21 Nov 06:15:56 06:18:16 14° 272° (W) 06:20:37 437.445
KAITUO 1B 21 Nov 06:26:16 06:29:48 37° 97° (E) 06:33:19 145.475/437.950
BEESAT 2 21 Nov 06:36:07 06:38:49 17° 333° (NNW) 06:41:32 435.950
FO-29 21 Nov 06:37:15 06:43:01 29° 54° (NE) 06:49:14 435.910
STARS 21 Nov 06:39:30 06:42:31 18° 269° (W) 06:45:33 437.465
DOVE 4 21 Nov 06:40:10 06:44:54 35° 295° (WNW) 06:49:27 437.250
XW-2D 21 Nov 06:40:50 06:44:39 77° 103° (ESE) 06:48:28 145.860 - 145.880
CUBEBUG 2 21 Nov 06:45:07 06:47:09 13° 88° (E) 06:49:09 437.445
AO-7 21 Nov 06:52:14 06:58:21 24° 318° (NW) 07:04:30 .
XW-2B 21 Nov 06:55:41 06:59:30 77° 284° (WNW) 07:03:18 145.730 - 145.750
RS-15 21 Nov 06:58:39 07:03:46 14° 269° (W) 07:08:49 29.354- 29.394
HO-68 21 Nov 07:00:23 07:07:01 38° 96° (E) 07:13:35 435.675
STRAND 1 21 Nov 07:00:51 07:06:02 85° 256° (WSW) 07:11:14 437.568
NUDT-PHONESAT 21 Nov 07:10:57 07:14:39 72° 285° (WNW) 07:18:21 437.300
SO-50 21 Nov 07:16:51 07:21:05 36° 240° (WSW) 07:25:22 436.795
YUBILEINY 21 Nov 07:21:00 07:29:22 47° 291° (WNW) 07:37:50 435.215
XW-2C 21 Nov 07:21:29 07:25:03 39° 290° (WNW) 07:28:37 145.795 - 145.815
LilacSat-2 21 Nov 07:23:27 07:26:59 35° 291° (WNW) 07:30:30 437.200
CUTE 1.7 + AOD 2 21 Nov 07:24:00 07:28:13 53° 100° (E) 07:32:24 437.475
AO-85 21 Nov 07:29:15 07:31:51 16° 338° (NNW) 07:34:33 145.980
CUTE-I 21 Nov 07:30:59 07:36:19 63° 290° (WNW) 07:41:35 437.470
XW-2F 21 Nov 07:32:21 07:35:46 32° 292° (WNW) 07:39:10 145.980 - 146.000
ZACube-1 21 Nov 07:32:29 07:34:25 13° 88° (E) 07:36:20 437.345
UWE-3 21 Nov 07:40:53 07:44:27 27° 94° (E) 07:48:01 435.000/436.395/437.385
SEEDS 21 Nov 07:54:32 07:58:48 69° 102° (ESE) 08:03:02 437.485
PCSat 21 Nov 07:57:27 08:02:15 30° 38° (NE) 08:07:01 145.827
KAITUO 1B 21 Nov 08:00:40 08:03:34 21° 295° (WNW) 08:06:29 145.475/437.950
AAUSAT CUBESAT 2 21 Nov 08:01:31 08:05:27 38° 97° (E) 08:09:21 437.432
XW-2D 21 Nov 08:16:40 08:18:17 12° 301° (WNW) 08:19:53 145.860 - 145.880
CUBEBUG 2 21 Nov 08:20:06 08:24:18 70° 286° (WNW) 08:28:25 437.445
FO-29 21 Nov 08:20:30 08:27:17 78° 257° (WSW) 08:34:55 435.910
AO-73 21 Nov 08:22:06 08:25:55 35° 97° (E) 08:29:44 145.935
UNISAT 6 21 Nov 08:25:34 08:29:28 29° 65° (ENE) 08:33:19 437.425
TIGRISAT 21 Nov 08:29:54 08:33:49 29° 65° (ENE) 08:37:40 435.000
XW-2A 21 Nov 08:33:10 08:36:32 81° 284° (WNW) 08:39:54 145.665 - 145.685
Oscar 11 21 Nov 08:38:26 08:42:28 36° 97° (E) 08:46:29 .
STRAND 1 21 Nov 08:43:34 08:45:59 13° 274° (W) 08:48:26 437.568
BEESAT 3 21 Nov 08:44:17 08:45:40 11° 16° (NNE) 08:47:04 437.485
HO-68 21 Nov 08:48:02 08:54:59 53° 296° (WNW) 09:01:54 435.675
CUTE 1.7 + AOD 2 21 Nov 09:00:36 09:03:42 20° 298° (WNW) 09:06:47 437.475
ZACube-1 21 Nov 09:07:04 09:11:12 72° 286° (WNW) 09:15:21 437.345
AO-85 21 Nov 09:12:47 09:14:03 11° 3° (N) 09:15:21 145.980
CUTE-I 21 Nov 09:13:00 09:15:21 13° 310° (NW) 09:17:42 437.470
UWE-3 21 Nov 09:17:14 09:20:57 32° 293° (WNW) 09:24:39 435.000/436.395/437.385
PRISM 21 Nov 09:23:59 09:27:50 39° 68° (ENE) 09:31:43 437.425
YUBILEINY 21 Nov 09:25:20 09:29:03 13° 318° (NW) 09:32:47 435.215
SEEDS 21 Nov 09:31:24 09:33:59 16° 300° (WNW) 09:36:34 437.485
EO-88 21 Nov 09:36:23 09:38:42 16° 91° (E) 09:41:01 145.990 - 145.960
AAUSAT CUBESAT 2 21 Nov 09:37:17 09:40:44 25° 295° (WNW) 09:44:11 437.432
Max Valier Satellite 21 Nov 09:37:41 09:40:39 23° 94° (E) 09:43:36 145.860
PCSat 21 Nov 09:40:41 09:46:05 67° 239° (WSW) 09:51:27 145.827
AIST 2D 21 Nov 09:45:44 09:48:08 18° 64° (ENE) 09:50:33 435.315
EO-79 21 Nov 09:51:09 09:52:35 12° 56° (NE) 09:54:01 145.935-145.965
NANOSAT C BR1 21 Nov 09:54:34 09:55:47 11° 55° (NE) 09:57:00 145.865
BEESAT 2 21 Nov 09:55:29 09:57:39 14° 21° (NNE) 09:59:47 435.950
AO-73 21 Nov 09:58:36 10:02:03 26° 295° (WNW) 10:05:30 145.935
UNISAT 6 21 Nov 10:01:51 10:06:05 37° 263° (W) 10:10:15 437.425
POLYITAN 1 21 Nov 10:05:16 10:07:46 15° 59° (ENE) 10:10:14 437.675
TIGRISAT 21 Nov 10:06:11 10:10:25 37° 263° (W) 10:14:34 435.000
DELFI C3 21 Nov 10:06:33 10:10:34 68° 101° (ESE) 10:14:32 145.870
FO-29 21 Nov 10:09:18 10:13:41 17° 279° (W) 10:18:22 435.910
Oscar 11 21 Nov 10:14:48 10:18:29 27° 295° (WNW) 10:22:09 .
BEESAT 3 21 Nov 10:20:47 10:24:24 32° 39° (NE) 10:27:57 437.485
QB50P2 21 Nov 10:27:20 10:30:51 26° 64° (ENE) 10:34:22 145.880/145.840
HO-68 21 Nov 10:37:24 10:41:13 15° 319° (NW) 10:45:00 435.675
AO-85 21 Nov 10:52:52 10:56:09 20° 28° (NNE) 10:59:35 145.980
PRISM 21 Nov 10:59:52 11:03:13 24° 266° (W) 11:06:37 437.425
EO-88 21 Nov 11:09:03 11:12:35 45° 289° (WNW) 11:16:04 145.990 - 145.960
Max Valier Satellite 21 Nov 11:11:14 11:14:31 31° 292° (WNW) 11:17:48 145.860
DUCHIFAT 1 21 Nov 11:16:00 11:20:06 53° 71° (ENE) 11:24:12 145.980
AIST 2D 21 Nov 11:17:48 11:21:03 38° 262° (W) 11:24:20 435.315
EO-79 21 Nov 11:23:23 11:27:38 80° 74° (ENE) 11:31:53 145.935-145.965
NANOSAT C BR1 21 Nov 11:26:32 11:30:45 77° 75° (ENE) 11:34:59 145.865
PCSat 21 Nov 11:26:47 11:28:27 11° 259° (WSW) 11:30:06 145.827
ESTCUBE 1 21 Nov 11:27:32 11:31:37 32° 96° (E) 11:35:40 437.505/2401.250
BEESAT 2 21 Nov 11:32:25 11:36:21 45° 44° (NE) 11:40:12 435.950
LO-87 21 Nov 11:32:54 11:36:21 45° 100° (E) 11:39:44 145.935 - 145.965
POLYITAN 1 21 Nov 11:38:47 11:43:02 73° 258° (WSW) 11:47:16 437.675
DELFI C3 21 Nov 11:42:33 11:44:49 15° 300° (WNW) 11:47:04 145.870
BEESAT 3 21 Nov 11:58:18 12:02:00 38° 239° (WSW) 12:05:38 437.485
QB50P2 21 Nov 12:02:31 12:06:29 38° 263° (W) 12:10:28 145.880/145.840
BUGSAT 1 21 Nov 12:07:52 12:11:54 49° 71° (ENE) 12:15:56 437.445
Oscar 19 21 Nov 12:10:49 12:15:26 36° 64° (ENE) 12:20:06 437.125/150
AO-7 21 Nov 12:20:55 12:26:28 20° 39° (NE) 12:32:01 .
AO-85 21 Nov 12:32:43 12:37:17 70° 48° (NE) 12:42:13 145.980
Gurwin Techsat 1B 21 Nov 12:37:18 12:42:20 44° 66° (ENE) 12:47:23 435.225
SPROUT 21 Nov 12:42:57 12:47:04 46° 99° (E) 12:51:09 437.525
DUCHIFAT 1 21 Nov 12:53:09 12:56:04 18° 269° (W) 12:58:59 145.980
EO-79 21 Nov 13:02:11 13:03:56 12° 273° (W) 13:05:41 145.935-145.965
ESTCUBE 1 21 Nov 13:04:19 13:08:25 34° 294° (WNW) 13:12:30 437.505/2401.250
NANOSAT C BR1 21 Nov 13:05:07 13:07:00 13° 272° (W) 13:08:53 145.865
LO-87 21 Nov 13:07:09 13:09:25 16° 297° (WNW) 13:11:40 145.935 - 145.965
BEESAT 2 21 Nov 13:10:30 13:13:53 26° 243° (WSW) 13:17:13 435.950
UKube-1 21 Nov 13:16:06 13:17:03 11° 87° (E) 13:17:59 .
50 SAT 21 Nov 13:17:32 13:19:27 15° 92° (E) 13:21:21 437.505
M-CUBED/EXP-1 PRIME 21 Nov 13:19:20 13:22:45 39° 62° (ENE) 13:26:28 437.505
O/OREOS (USA 219) 21 Nov 13:21:01 13:25:06 32° 106° (ESE) 13:29:11 437.305
VELOX 1 21 Nov 13:23:17 13:27:46 75° 102° (ESE) 13:32:12 145.980
BUGSAT 1 21 Nov 13:44:31 13:47:31 19° 268° (W) 13:50:31 437.445
Oscar 19 21 Nov 13:50:03 13:54:46 37° 264° (W) 13:59:31 437.125/150
ITAMSAT 1 21 Nov 14:04:08 14:08:32 28° 61° (ENE) 14:12:56 435.822/435.867
DX 1 21 Nov 14:07:57 14:12:15 52° 101° (E) 14:16:32 434.975-435.025
AO-7 21 Nov 14:09:37 14:17:43 62° 62° (ENE) 14:25:52 .
AO-85 21 Nov 14:13:49 14:17:22 21° 245° (WSW) 14:21:05 145.980
Gurwin Techsat 1B 21 Nov 14:17:44 14:22:25 31° 265° (W) 14:27:09 435.225
SPROUT 21 Nov 14:19:24 14:22:42 22° 298° (WNW) 14:25:58 437.525
MOZHAYETS 4 21 Nov 14:35:08 14:37:48 15° 88° (E) 14:40:27
DOVE 4 21 Nov 14:37:40 14:39:32 12° 51° (NE) 14:41:24 437.250
50 SAT 21 Nov 14:48:41 14:51:44 37° 290° (WNW) 14:54:44 437.505
UKube-1 21 Nov 14:49:22 14:53:45 87° 107° (ESE) 14:58:04 .
M-CUBED/EXP-1 PRIME 21 Nov 14:54:34 14:57:22 21° 262° (W) 15:00:20 437.505
O/OREOS (USA 219) 21 Nov 15:00:09 15:04:27 37° 306° (NW) 15:08:45 437.305
VELOX 1 21 Nov 15:00:54 15:03:40 16° 302° (WNW) 15:06:26 145.980
YUBILEINY 21 Nov 15:28:30 15:36:13 32° 61° (ENE) 15:43:53 435.215
CUTE-I 21 Nov 15:42:10 15:43:40 11° 48° (NE) 15:45:10 437.470
ITAMSAT 1 21 Nov 15:42:39 15:47:45 51° 260° (W) 15:52:52 435.822/435.867
DX 1 21 Nov 15:44:48 15:48:06 21° 299° (WNW) 15:51:24 434.975-435.025
NO-84 21 Nov 15:48:46 15:52:19 42° 140° (SE) 15:56:09 435.350 FM
HO-68 21 Nov 15:51:08 15:54:09 13° 38° (NE) 15:57:09 435.675
BEESAT 21 Nov 15:51:54 15:56:37 57° 101° (E) 16:01:17 436.000
ITUPSAT 1 21 Nov 16:01:50 16:06:36 68° 102° (ESE) 16:11:20 437.325
AO-7 21 Nov 16:03:22 16:10:54 38° 263° (W) 16:18:30 .
XW-2B 21 Nov 16:09:44 16:10:43 11° 58° (ENE) 16:11:43 145.730 - 145.750
MOZHAYETS 4 21 Nov 16:10:55 16:15:28 72° 287° (WNW) 16:20:02
DOVE 4 21 Nov 16:11:06 16:16:06 59° 71° (ENE) 16:21:19 437.250
NUDT-PHONESAT 21 Nov 16:23:14 16:23:56 10° 58° (ENE) 16:24:37 437.300
CUBESAT XI-V 21 Nov 16:23:23 16:27:50 41° 98° (E) 16:32:17 437.345
KKS-1 21 Nov 16:25:44 16:26:47 11° 86° (E) 16:27:50 437.445
UKube-1 21 Nov 16:26:54 16:29:08 14° 304° (NW) 16:31:21 .
XW-2C 21 Nov 16:33:26 16:36:05 19° 63° (ENE) 16:38:46 145.795 - 145.815
LilacSat-2 21 Nov 16:35:41 16:38:33 21° 64° (ENE) 16:41:26 437.200
XW-2F 21 Nov 16:43:27 16:46:21 22° 65° (ENE) 16:49:16 145.980 - 146.000
RS-15 21 Nov 17:03:47 17:11:04 18° 95° (E) 17:18:18 29.354- 29.394
KAITUO 1B 21 Nov 17:10:05 17:13:23 32° 68° (ENE) 17:16:43 145.475/437.950
CUTE-I 21 Nov 17:17:22 17:22:35 53° 68° (ENE) 17:27:50 437.470
SEEDS 21 Nov 17:17:46 17:19:05 11° 56° (NE) 17:20:25 437.485
YUBILEINY 21 Nov 17:25:04 17:33:54 74° 265° (W) 17:42:40 435.215
XW-2D 21 Nov 17:25:43 17:29:25 67° 74° (ENE) 17:33:10 145.860 - 145.880
NO-84 21 Nov 17:25:47 17:29:38 55° 341° (NNW) 17:33:44 435.350 FM
BEESAT 21 Nov 17:30:22 17:34:02 22° 300° (WNW) 17:37:41 436.000
HO-68 21 Nov 17:33:24 17:40:09 45° 61° (ENE) 17:46:55 435.675
XW-2B 21 Nov 17:40:32 17:44:16 86° 256° (WSW) 17:48:03 145.730 - 145.750
ITUPSAT 1 21 Nov 17:40:36 17:43:57 19° 302° (WNW) 17:47:18 437.325
CUBEBUG 2 21 Nov 17:46:31 17:49:57 22° 62° (ENE) 17:53:19 437.445
DOVE 4 21 Nov 17:50:09 17:54:10 23° 270° (W) 17:58:19 437.250
MOZHAYETS 4 21 Nov 17:50:13 17:51:50 12° 306° (NW) 17:53:26
NUDT-PHONESAT 21 Nov 17:53:31 17:57:10 86° 256° (WSW) 18:00:51 437.300
KKS-1 21 Nov 17:59:33 18:04:03 84° 102° (ESE) 18:08:31 437.445
CUBESAT XI-V 21 Nov 18:01:03 18:05:03 28° 296° (WNW) 18:09:02 437.345
XW-2C 21 Nov 18:06:25 18:09:59 42° 261° (W) 18:13:36 145.795 - 145.815
LilacSat-2 21 Nov 18:09:06 18:12:37 37° 263° (W) 18:16:10 437.200
XW-2F 21 Nov 18:16:51 18:20:17 35° 263° (W) 18:23:44 145.980 - 146.000
CUTE 1.7 + AOD 2 21 Nov 18:20:24 18:24:33 64° 73° (ENE) 18:28:46 437.475
STARS 21 Nov 18:22:26 18:26:48 61° 102° (ESE) 18:31:08 437.465
ZACube-1 21 Nov 18:31:56 18:34:56 19° 62° (ENE) 18:37:56 437.345
UWE-3 21 Nov 18:41:29 18:45:36 39° 69° (ENE) 18:49:37 435.000/436.395/437.385
KAITUO 1B 21 Nov 18:44:28 18:47:25 23° 266° (W) 18:50:25 145.475/437.950
SEEDS 21 Nov 18:49:53 18:54:03 81° 74° (ENE) 18:58:16 437.485
AAUSAT CUBESAT 2 21 Nov 18:55:19 18:59:14 43° 70° (ENE) 19:03:11 437.432
CUTE-I 21 Nov 18:58:27 19:02:55 26° 267° (W) 19:07:26 437.470
XW-2D 21 Nov 19:02:41 19:04:03 12° 272° (W) 19:05:24 145.860 - 145.880
NO-84 21 Nov 19:03:42 19:07:32 38° 2° (N) 19:11:32 435.350 FM
STRAND 1 21 Nov 19:07:27 19:11:35 24° 92° (E) 19:15:40 437.568
XW-2A 21 Nov 19:07:50 19:11:07 63° 74° (ENE) 19:14:25 145.665 - 145.685
RS-15 21 Nov 19:08:58 19:21:01 65° 118° (ESE) 19:32:59 29.354- 29.394
HO-68 21 Nov 19:21:01 19:27:53 46° 261° (W) 19:34:48 435.675
AO-73 21 Nov 19:21:18 19:25:24 47° 70° (ENE) 19:29:26 145.935
CUBEBUG 2 21 Nov 19:21:49 19:26:16 52° 260° (W) 19:30:37 437.445
YUBILEINY 21 Nov 19:23:45 19:29:07 18° 288° (WNW) 19:34:27 435.215
FO-29 21 Nov 19:26:40 19:31:38 18° 81° (E) 19:36:27 435.910
Oscar 11 21 Nov 19:37:02 19:41:09 47° 70° (ENE) 19:45:18 .
KKS-1 21 Nov 19:37:29 19:40:00 15° 304° (WNW) 19:42:31 437.445
CUTE 1.7 + AOD 2 21 Nov 19:58:24 20:00:49 15° 271° (W) 20:03:17 437.475
STARS 21 Nov 19:59:40 20:02:44 19° 301° (WNW) 20:05:47 437.465
ZACube-1 21 Nov 20:06:39 20:10:53 55° 260° (W) 20:15:03 437.345
EO-88 21 Nov 20:18:29 20:20:31 14° 61° (ENE) 20:22:32 145.990 - 145.960
UWE-3 21 Nov 20:18:29 20:22:09 25° 266° (W) 20:25:47 435.000/436.395/437.385
Max Valier Satellite 21 Nov 20:20:41 20:23:25 20° 64° (ENE) 20:26:10 145.860
SEEDS 21 Nov 20:28:45 20:30:18 12° 273° (W) 20:31:52 437.485
AAUSAT CUBESAT 2 21 Nov 20:31:42 20:34:53 21° 268° (W) 20:38:06 437.432
NO-84 21 Nov 20:41:15 20:45:24 63° 22° (NNE) 20:49:39 435.350 FM
STRAND 1 21 Nov 20:46:05 20:51:06 54° 291° (WNW) 20:56:04 437.568
DELFI C3 21 Nov 20:55:21 20:59:18 68° 73° (ENE) 21:03:17 145.870
AO-73 21 Nov 20:58:41 21:01:52 20° 268° (W) 21:05:01 145.935
nSIGHT-1 21 Nov 21:07:28 21:10:05 23° 143° (SE) 21:12:43 .
FO-29 21 Nov 21:10:04 21:18:00 73° 102° (ESE) 21:25:31 435.910
Oscar 11 21 Nov 21:14:18 21:17:33 21° 269° (W) 21:20:48 .
RS-15 21 Nov 21:21:51 21:34:00 58° 325° (NW) 21:45:55 29.354- 29.394
SO-50 21 Nov 21:35:17 21:38:55 25° 116° (ESE) 21:42:36 436.795
O/OREOS (USA 219) 21 Nov 21:47:24 21:50:58 22° 47° (NE) 21:54:30 437.305
UNISAT 6 21 Nov 21:48:50 21:52:41 32° 95° (E) 21:56:31 437.425
EO-88 21 Nov 21:50:10 21:53:44 56° 260° (W) 21:57:19 145.990 - 145.960
ISS 21 Nov 21:52:58 21:56:04 41° 150° (SSE) 21:59:11 437.550
TIGRISAT 21 Nov 21:53:00 21:56:52 32° 96° (E) 22:00:40 435.000
Max Valier Satellite 21 Nov 21:53:38 21:57:02 36° 263° (W) 22:00:28 145.860
LO-87 21 Nov 22:12:34 22:15:53 36° 70° (ENE) 22:19:13 145.935 - 145.965
NO-84 21 Nov 22:18:45 22:22:42 37° 221° (SW) 22:26:38 435.350 FM
STRAND 1 21 Nov 22:28:07 22:29:11 11° 311° (NW) 22:30:16 437.568
ESTCUBE 1 21 Nov 22:30:53 22:35:10 48° 69° (ENE) 22:39:31 437.505/2401.250
DELFI C3 21 Nov 22:32:37 22:34:30 13° 272° (W) 22:36:22 145.870
PRISM 21 Nov 22:35:45 22:39:34 34° 97° (E) 22:43:22 437.425
AIST 2D 21 Nov 22:39:31 22:40:53 12° 89° (E) 22:42:16 435.315
nSIGHT-1 21 Nov 22:42:49 22:46:03 89° 2° (N) 22:49:16 .
VELOX 1 21 Nov 22:50:02 22:52:49 16° 58° (ENE) 22:55:36 145.980
FO-29 21 Nov 22:55:38 23:02:24 33° 303° (WNW) 23:08:58 435.910
SO-50 21 Nov 23:14:42 23:19:06 55° 316° (NW) 23:23:34 436.795
POLYITAN 1 21 Nov 23:20:33 23:22:39 13° 88° (E) 23:24:46 437.675
UNISAT 6 21 Nov 23:25:37 23:29:22 30° 295° (WNW) 23:33:06 437.425
O/OREOS (USA 219) 21 Nov 23:26:17 23:30:49 63° 248° (WSW) 23:35:16 437.305
ISS 21 Nov 23:29:13 23:32:29 67° 349° (N) 23:35:45 437.550
TIGRISAT 21 Nov 23:29:46 23:33:31 30° 295° (WNW) 23:37:12 435.000
DX 1 21 Nov 23:34:23 23:36:06 12° 54° (NE) 23:37:51 434.975-435.025
RS-15 21 Nov 23:38:18 23:49:35 39° 358° (N) 00:00:28 29.354- 29.394
SPROUT 21 Nov 23:39:51 23:44:05 61° 72° (ENE) 23:48:19 437.525
QB50P2 21 Nov 23:42:54 23:46:23 25° 94° (E) 23:49:50 145.880/145.840
LO-87 21 Nov 23:46:45 23:49:25 19° 267° (W) 23:52:05 145.935 - 145.965
50 SAT 21 Nov 23:49:45 23:50:43 11° 60° (ENE) 23:51:42 437.505
ESTCUBE 1 22 Nov 00:08:44 00:12:14 22° 268° (W) 00:15:44 437.505/2401.250
AIST 2D 22 Nov 00:10:56 00:14:25 59° 287° (WNW) 00:17:54 435.315
PRISM 22 Nov 00:11:10 00:14:45 28° 295° (WNW) 00:18:17 437.425
UKube-1 22 Nov 00:13:26 00:16:20 18° 59° (ENE) 00:19:14 .
nSIGHT-1 22 Nov 00:19:15 00:22:26 57° 3° (N) 00:25:36 .
VELOX 1 22 Nov 00:24:16 00:28:43 74° 257° (WSW) 00:33:12 145.980
PCSat 22 Nov 00:26:21 00:31:30 46° 116° (ESE) 00:36:41 145.827
DUCHIFAT 1 22 Nov 00:30:52 00:34:58 52° 100° (E) 00:39:02 145.980
EO-79 22 Nov 00:39:09 00:43:23 82° 105° (ESE) 00:47:34 145.935-145.965
NANOSAT C BR1 22 Nov 00:41:52 00:46:04 78° 103° (ESE) 00:50:14 145.865
FO-29 22 Nov 00:44:23 00:45:05 10° 326° (NW) 00:45:47 435.910
Gurwin Techsat 1B 22 Nov 00:51:01 00:52:56 12° 85° (E) 00:54:52 435.225
POLYITAN 1 22 Nov 00:54:44 00:58:56 71° 287° (WNW) 01:03:06 437.675
SO-50 22 Nov 00:57:28 01:00:31 17° 338° (NNW) 01:03:36 436.795
ISS 22 Nov 01:05:54 01:09:10 65° 10° (N) 01:12:25 437.550
DX 1 22 Nov 01:07:11 01:11:33 79° 73° (ENE) 01:15:58 434.975-435.025
SPROUT 22 Nov 01:17:39 01:20:22 16° 270° (W) 01:23:05 437.525
QB50P2 22 Nov 01:18:23 01:22:17 38° 292° (WNW) 01:26:09 145.880/145.840
50 SAT 22 Nov 01:19:08 01:22:21 62° 258° (WSW) 01:25:35 437.505
BUGSAT 1 22 Nov 01:20:19 01:24:13 44° 99° (E) 01:28:03 437.445
BEESAT 22 Nov 01:26:44 01:29:52 18° 57° (ENE) 01:32:59 436.000
ITUPSAT 1 22 Nov 01:36:33 01:40:02 21° 59° (ENE) 01:43:32 437.325
MOZHAYETS 4 22 Nov 01:40:42 01:44:24 25° 63° (ENE) 01:48:07
UKube-1 22 Nov 01:47:37 01:51:54 64° 257° (WSW) 01:56:14 .
RS-15 22 Nov 01:53:29 02:05:19 53° 31° (NNE) 02:16:31 29.354- 29.394
BEESAT 3 22 Nov 01:53:59 01:55:00 11° 109° (ESE) 01:56:00 437.485
nSIGHT-1 22 Nov 01:55:33 01:58:46 74° 201° (SSW) 02:01:57 .
Oscar 19 22 Nov 01:56:24 02:01:30 55° 101° (E) 02:06:34 437.125/150
CUBESAT XI-V 22 Nov 01:57:29 01:58:38 11° 53° (NE) 01:59:47 437.345
DUCHIFAT 1 22 Nov 02:07:18 02:10:17 19° 299° (WNW) 02:13:16 145.980
AO-7 22 Nov 02:08:48 02:12:14 13° 82° (E) 02:15:40 .
PCSat 22 Nov 02:09:57 02:15:01 39° 317° (NW) 02:20:07 145.827
EO-79 22 Nov 02:16:24 02:18:33 14° 302° (WNW) 02:20:41 145.935-145.965
NANOSAT C BR1 22 Nov 02:18:58 02:21:13 14° 302° (WNW) 02:23:27 145.865
M-CUBED/EXP-1 PRIME 22 Nov 02:27:27 02:30:33 18° 96° (E) 02:33:41 437.505
Gurwin Techsat 1B 22 Nov 02:28:27 02:33:49 75° 104° (ESE) 02:39:08 435.225
POLYITAN 1 22 Nov 02:33:27 02:33:56 10° 306° (NW) 02:34:24 437.675
SO-50 22 Nov 02:40:49 02:42:47 12° 3° (N) 02:44:47 436.795
ISS 22 Nov 02:42:27 02:45:36 44° 209° (SSW) 02:48:43 437.550
DX 1 22 Nov 02:46:14 02:48:18 13° 272° (W) 02:50:23 434.975-435.025
BUGSAT 1 22 Nov 02:56:15 02:59:18 21° 298° (WNW) 03:02:19 437.445
BEESAT 22 Nov 03:02:18 03:07:05 77° 257° (WSW) 03:11:53 436.000
BEESAT 2 22 Nov 03:05:38 03:08:21 18° 113° (ESE) 03:11:06 435.950
ITUPSAT 1 22 Nov 03:12:41 03:17:26 64° 258° (WSW) 03:22:13 437.325
MOZHAYETS 4 22 Nov 03:16:57 03:21:20 46° 261° (W) 03:25:45
KKS-1 22 Nov 03:26:38 03:29:47 19° 59° (ENE) 03:32:57 437.445
BEESAT 3 22 Nov 03:27:50 03:31:50 82° 128° (SE) 03:35:52 437.485
CUBESAT XI-V 22 Nov 03:30:34 03:35:06 65° 73° (ENE) 03:39:43 437.345
nSIGHT-1 22 Nov 03:32:24 03:34:36 17° 220° (SW) 03:36:45 .
Oscar 19 22 Nov 03:36:18 03:40:30 26° 300° (WNW) 03:44:42 437.125/150
STARS 22 Nov 03:49:06 03:51:27 14° 56° (NE) 03:53:49 437.465
ITAMSAT 1 22 Nov 03:50:55 03:55:50 40° 98° (E) 04:00:42 435.822/435.867
PCSat 22 Nov 03:56:48 03:59:57 15° 342° (NNW) 04:03:07 145.827
AO-7 22 Nov 03:58:36 04:06:52 59° 104° (ESE) 04:15:05 .
M-CUBED/EXP-1 PRIME 22 Nov 04:00:47 04:05:16 68° 293° (WNW) 04:09:53 437.505
RS-15 22 Nov 04:06:40 04:18:30 71° 239° (WSW) 04:29:40 29.354- 29.394
DOVE 4 22 Nov 04:07:25 04:09:53 13° 84° (E) 04:12:18 437.250
Gurwin Techsat 1B 22 Nov 04:09:21 04:13:13 21° 303° (WNW) 04:17:04 435.225
SO-50 22 Nov 04:21:20 04:24:54 22° 28° (NNE) 04:28:32 436.795
AO-85 22 Nov 04:31:34 04:35:17 44° 122° (ESE) 04:39:12 145.980
YUBILEINY 22 Nov 04:36:23 04:43:30 29° 80° (E) 04:50:39 435.215
BEESAT 2 22 Nov 04:41:38 04:45:39 65° 313° (NW) 04:49:43 435.950
BEESAT 22 Nov 04:44:34 04:45:39 11° 275° (W) 04:46:46 436.000
STRAND 1 22 Nov 04:53:21 04:54:07 10° 48° (NE) 04:54:54 437.568
KKS-1 22 Nov 05:01:28 05:05:55 63° 258° (WSW) 05:10:24 437.445
BEESAT 3 22 Nov 05:06:48 05:09:52 21° 329° (NNW) 05:12:57 437.485
CUBESAT XI-V 22 Nov 05:09:57 05:12:57 17° 271° (W) 05:15:58 437.345
STARS 22 Nov 05:22:43 05:27:09 88° 252° (WSW) 05:31:38 437.465
ITAMSAT 1 22 Nov 05:30:33 05:35:14 34° 297° (WNW) 05:39:53 435.822/435.867
CUTE-I 22 Nov 05:31:15 05:34:15 15° 87° (E) 05:37:13 437.470
XW-2C 22 Nov 05:35:18 05:37:29 15° 90° (E) 05:39:42 145.795 - 145.815
M-CUBED/EXP-1 PRIME 22 Nov 05:36:57 05:38:55 13° 311° (NW) 05:40:54 437.505
LilacSat-2 22 Nov 05:38:17 05:40:51 17° 91° (E) 05:43:26 437.200
